Weather in Smoline

Ukraine / Kirovohrad Region     48°36′05″N   31°17′40″E
temp.,
°C
wind,
m/s
gust,
m/s
humid.,
%
clouds,
%
prec.,
mm/h
press.,
hPa
HPBL,
m
14 april, wed
wed1400:00+8s498492 0.0 1018294
03:00+6sse498819 0.0 1018280
06:00+4sse369425 0.0 1018131
09:00+8sse467573 0.0 1017444
12:00+13s5759100 0.0 10161398
15:00+12sse4662100 0.0 10151104
18:00+11ssw237296 0.0 1014112
21:00+10ne2375100 0.0 101448
15 april, thu
thu1500:00+9sse2480100 0.1 1013130
03:00+8sse2387100 0.1 101298
06:00+8e2689100 0.3 1011272
09:00+8e3688100 0.4 1011438
12:00+9ese3582100 0.6 1011621
15:00+9ssw0190100 1.8 1011189
18:00+9wnw3388100 0.1 1011307
21:00+8sw229382 0.1 101176
16 april, fri
fri1600:00+7ssw249598 0.0 1011172
03:00+7ssw3597100 0.1 1010237
06:00+6s4697100 0.7 1010297
09:00+6ssw5693100 1.0 1011462
12:00+5sw5691100 0.8 1012550
15:00+4ssw5594100 1.0 1014567
18:00+3ssw4697100 0.4 1015579
21:00+4sw4593100 0.6 1016546
17 april, sat
sat1700:00+3sw3497100 0.0 1017425
03:00+3ssw3497100 0.1 1018302
06:00+3sw3497100 0.3 1019262
09:00+4sw129297 0.4 1020298
12:00+7ssw3382100 0.0 1021739
15:00+7wsw238075 0.1 1021589
18:00+8wsw2271100 0.0 1021670
21:00+7wsw2384100 0.1 1022131
18 april, sun
sun1800:00+7w1180100 0.0 102212
03:00+7ne007699 0.0 102110
06:00+7e2273100 0.0 102122
09:00+9ese3366100 0.0 1021458
12:00+12ese225779 0.0 10201268
15:00+14ese3350100 0.1 10201600
18:00+12ene4663100 0.1 1020541
21:00+10ene51076100 0.1 1020308